timestamp,wind_dir_avg,wind_spd_max_dir,wind_spd_avg,wind_spd_gust,battery_voltage,lat,long
2022-12-16 00:04:00+00:00,32.0,34.0,14.71,18.24,12.09,47.59359,-54.27349
2022-12-16 00:14:00+00:00,32.0,32.0,15.41,17.34,12.09,47.59359,-54.27349
2022-12-16 00:24:00+00:00,32.0,36.0,16.0,17.76,12.09,47.59359,-54.27349
2022-12-16 00:34:00+00:00,31.0,34.0,15.06,17.57,12.09,47.59359,-54.27349
2022-12-16 00:44:00+00:00,33.0,39.0,14.86,17.73,12.09,47.59359,-54.27349
2022-12-16 00:54:00+00:00,33.0,32.0,15.33,17.07,12.09,47.59359,-54.27349
2022-12-16 01:04:00+00:00,32.0,28.0,14.96,16.51,12.09,47.59359,-54.27349
2022-12-16 01:14:00+00:00,34.0,41.0,13.77,15.61,12.09,47.59359,-54.27349
2022-12-16 01:24:00+00:00,31.0,37.0,15.45,18.11,12.09,47.59359,-54.27349
2022-12-16 01:34:00+00:00,32.0,39.0,16.09,19.2,12.09,47.59359,-54.27349
2022-12-16 01:44:00+00:00,30.0,30.0,15.22,16.94,12.09,47.59359,-54.27349
2022-12-16 01:54:00+00:00,33.0,26.0,14.63,17.46,12.09,47.59359,-54.27349
2022-12-16 02:04:00+00:00,33.0,38.0,14.43,16.41,12.09,47.59359,-54.27349
2022-12-16 02:14:00+00:00,29.0,24.0,16.55,18.58,12.01,47.59359,-54.27349
2022-12-16 02:24:00+00:00,35.0,43.0,14.72,18.05,12.01,47.59359,-54.27349
2022-12-16 02:34:00+00:00,31.0,41.0,16.1,19.21,12.01,47.59359,-54.27349
2022-12-16 02:44:00+00:00,30.0,26.0,15.86,18.25,12.01,47.59359,-54.27349
2022-12-16 02:54:00+00:00,34.0,40.0,15.91,19.15,12.01,47.59359,-54.27349
2022-12-16 03:04:00+00:00,32.0,53.0,15.39,19.79,12.01,47.59359,-54.27349
2022-12-16 03:14:00+00:00,32.0,37.0,15.75,19.19,12.01,47.59359,-54.27349
2022-12-16 03:24:00+00:00,34.0,41.0,17.52,23.38,12.01,47.59359,-54.27349
2022-12-16 03:34:00+00:00,34.0,38.0,14.39,16.26,12.01,47.59359,-54.27349
2022-12-16 03:44:00+00:00,33.0,47.0,17.93,21.98,12.01,47.59359,-54.27349
2022-12-16 03:54:00+00:00,32.0,41.0,16.87,23.54,12.01,47.59359,-54.27349
2022-12-16 04:04:00+00:00,31.0,49.0,17.36,21.05,12.01,47.59359,-54.27349
2022-12-16 04:14:01+00:00,32.0,44.0,17.73,22.13,12.01,47.59359,-54.27349
2022-12-16 04:24:01+00:00,35.0,45.0,17.79,23.11,12.01,47.59359,-54.27349
2022-12-16 04:34:01+00:00,35.0,48.0,16.4,20.8,12.01,47.59359,-54.27349
2022-12-16 04:44:01+00:00,30.0,36.0,16.53,20.57,12.01,47.59359,-54.27349
2022-12-16 04:54:01+00:00,29.0,34.0,16.59,19.18,12.01,47.59359,-54.27349
2022-12-16 05:04:01+00:00,31.0,34.0,17.05,20.92,12.01,47.59359,-54.27349
2022-12-16 05:14:01+00:00,31.0,26.0,15.3,17.7,12.09,47.59359,-54.27349
2022-12-16 05:24:01+00:00,32.0,27.0,16.67,22.69,12.09,47.59359,-54.27349
2022-12-16 05:34:01+00:00,30.0,45.0,16.58,21.26,12.09,47.59359,-54.27349
2022-12-16 05:44:01+00:00,33.0,39.0,16.19,19.83,12.09,47.59359,-54.27349
2022-12-16 05:54:01+00:00,35.0,49.0,15.66,20.44,12.09,47.59359,-54.27349
2022-12-16 06:04:01+00:00,31.0,35.0,17.09,21.29,12.09,47.59359,-54.27349
2022-12-16 06:14:00+00:00,32.0,46.0,18.18,21.43,12.09,47.59359,-54.27349
2022-12-16 06:24:00+00:00,37.0,46.0,18.35,23.34,12.09,47.59359,-54.27349
2022-12-16 06:34:00+00:00,40.0,44.0,18.01,23.33,12.09,47.59359,-54.27349
2022-12-16 06:44:00+00:00,41.0,48.0,20.07,23.75,12.09,47.59359,-54.27349
2022-12-16 06:54:00+00:00,35.0,43.0,16.81,21.43,12.09,47.59359,-54.27349
2022-12-16 07:04:00+00:00,36.0,43.0,19.46,24.26,12.09,47.59359,-54.27349
2022-12-16 07:14:00+00:00,36.0,45.0,18.09,22.52,12.09,47.59359,-54.27349
2022-12-16 07:24:00+00:00,34.0,44.0,17.95,21.84,12.09,47.59359,-54.27349
2022-12-16 07:34:00+00:00,31.0,34.0,17.52,19.98,12.09,47.59359,-54.27349
2022-12-16 07:44:00+00:00,38.0,53.0,17.74,21.74,12.09,47.59359,-54.27349
2022-12-16 07:54:00+00:00,31.0,26.0,15.89,18.68,12.09,47.59359,-54.27349
2022-12-16 08:04:00+00:00,31.0,26.0,16.26,18.77,12.09,47.59359,-54.27349
2022-12-16 08:14:00+00:00,34.0,44.0,16.47,21.23,12.09,47.59359,-54.27349
2022-12-16 08:24:00+00:00,35.0,35.0,15.96,19.51,12.09,47.59359,-54.27349
2022-12-16 08:34:00+00:00,32.0,32.0,15.72,18.29,12.09,47.59359,-54.27349
2022-12-16 08:44:00+00:00,32.0,33.0,16.54,19.52,12.09,47.59359,-54.27349
2022-12-16 08:54:00+00:00,33.0,30.0,15.5,17.44,12.09,47.59359,-54.27349
2022-12-16 09:04:00+00:00,33.0,48.0,17.41,22.75,12.09,47.59359,-54.27349
2022-12-16 09:14:01+00:00,35.0,50.0,16.38,20.88,12.09,47.59359,-54.27349
2022-12-16 09:24:01+00:00,37.0,57.0,15.34,18.47,12.09,47.59359,-54.27349
2022-12-16 09:34:01+00:00,40.0,48.0,14.89,19.26,12.09,47.59359,-54.27349
2022-12-16 09:44:01+00:00,38.0,53.0,16.88,22.39,12.09,47.59359,-54.27349
2022-12-16 09:54:01+00:00,40.0,52.0,16.05,21.42,12.09,47.59359,-54.27349
2022-12-16 10:04:01+00:00,36.0,34.0,14.59,17.62,12.09,47.59359,-54.27349
2022-12-16 10:14:00+00:00,34.0,36.0,16.04,19.12,12.09,47.59359,-54.27349
2022-12-16 10:24:00+00:00,33.0,32.0,15.24,16.88,12.09,47.59359,-54.27349
2022-12-16 10:34:00+00:00,34.0,31.0,14.51,16.45,12.09,47.59359,-54.27349
2022-12-16 10:44:00+00:00,38.0,39.0,13.17,15.03,12.09,47.59359,-54.27349
2022-12-16 10:54:00+00:00,35.0,34.0,14.04,15.99,12.09,47.59359,-54.27349
2022-12-16 11:04:00+00:00,33.0,33.0,14.21,16.47,12.09,47.59359,-54.27349
2022-12-16 11:14:00+00:00,36.0,28.0,13.22,16.12,12.09,47.59359,-54.27349
2022-12-16 11:24:00+00:00,39.0,47.0,12.19,14.96,12.09,47.59359,-54.27349
2022-12-16 11:34:00+00:00,38.0,43.0,14.12,16.56,12.09,47.59359,-54.27349
2022-12-16 11:44:00+00:00,38.0,44.0,14.01,16.7,12.09,47.59359,-54.27349
2022-12-16 11:54:00+00:00,43.0,48.0,14.04,15.86,12.09,47.59359,-54.27349
2022-12-16 12:04:00+00:00,37.0,35.0,14.13,17.32,12.09,47.59359,-54.27349
2022-12-16 12:14:01+00:00,37.0,37.0,12.93,14.55,12.09,47.59359,-54.27349
2022-12-16 12:24:01+00:00,37.0,31.0,13.1,15.41,12.09,47.59359,-54.27349
2022-12-16 12:34:01+00:00,37.0,50.0,13.4,19.58,12.09,47.59359,-54.27349
2022-12-16 12:44:01+00:00,38.0,20.0,14.51,16.89,12.09,47.59359,-54.27349
2022-12-16 12:54:01+00:00,38.0,41.0,14.26,16.57,12.09,47.59359,-54.27349
2022-12-16 13:04:01+00:00,34.0,42.0,14.01,16.65,12.09,47.59359,-54.27349
2022-12-16 13:14:00+00:00,35.0,42.0,15.0,17.41,12.33,47.59359,-54.27349
2022-12-16 13:24:00+00:00,36.0,39.0,15.42,19.14,12.33,47.59359,-54.27349
2022-12-16 13:34:00+00:00,34.0,26.0,15.24,17.51,12.33,47.59359,-54.27349
2022-12-16 13:44:00+00:00,32.0,30.0,15.13,16.24,12.33,47.59359,-54.27349
2022-12-16 13:54:00+00:00,34.0,33.0,15.71,18.07,12.33,47.59359,-54.27349
2022-12-16 14:04:00+00:00,33.0,31.0,15.59,18.32,12.33,47.59359,-54.27349
2022-12-16 14:14:00+00:00,36.0,30.0,13.61,16.07,12.81,47.59359,-54.27349
2022-12-16 14:24:00+00:00,36.0,41.0,13.82,15.43,12.81,47.59359,-54.27349
2022-12-16 14:34:00+00:00,39.0,51.0,13.75,17.08,12.81,47.59359,-54.27349
2022-12-16 14:44:00+00:00,35.0,38.0,14.62,17.1,12.81,47.59359,-54.27349
2022-12-16 14:54:00+00:00,36.0,35.0,13.84,16.05,12.81,47.59359,-54.27349
2022-12-16 15:04:00+00:00,35.0,37.0,14.17,15.95,12.81,47.59359,-54.27349
2022-12-16 15:14:00+00:00,38.0,41.0,14.4,15.97,13.29,47.59359,-54.27349
2022-12-16 15:24:00+00:00,36.0,36.0,14.21,16.37,13.29,47.59359,-54.27349
2022-12-16 15:34:00+00:00,38.0,42.0,14.25,16.6,13.29,47.59359,-54.27349
2022-12-16 15:44:00+00:00,37.0,41.0,13.88,16.27,13.29,47.59359,-54.27349
2022-12-16 15:54:00+00:00,36.0,36.0,13.74,15.26,13.29,47.59359,-54.27349
2022-12-16 16:04:00+00:00,36.0,31.0,13.73,15.35,13.29,47.59359,-54.27349
2022-12-16 16:14:00+00:00,36.0,41.0,13.85,15.33,13.76,47.59359,-54.27349
2022-12-16 16:24:00+00:00,36.0,36.0,13.46,16.59,13.76,47.59359,-54.27349
2022-12-16 16:34:00+00:00,36.0,33.0,13.35,15.16,13.76,47.59359,-54.27349
2022-12-16 16:44:00+00:00,33.0,36.0,14.99,17.11,13.76,47.59359,-54.27349
2022-12-16 16:54:00+00:00,35.0,34.0,13.73,15.91,13.76,47.59359,-54.27349
2022-12-16 17:04:00+00:00,37.0,33.0,12.64,14.5,13.76,47.59359,-54.27349
2022-12-16 17:14:00+00:00,38.0,34.0,12.84,14.93,13.44,47.59359,-54.27349
2022-12-16 17:24:00+00:00,38.0,33.0,12.4,14.44,13.44,47.59359,-54.27349
2022-12-16 17:34:00+00:00,38.0,34.0,13.37,15.14,13.44,47.59359,-54.27349
2022-12-16 17:44:00+00:00,36.0,41.0,13.86,15.26,13.44,47.59359,-54.27349
2022-12-16 17:54:00+00:00,35.0,34.0,14.14,15.66,13.44,47.59359,-54.27349
2022-12-16 18:04:00+00:00,37.0,36.0,12.98,15.04,13.44,47.59359,-54.27349
2022-12-16 18:14:01+00:00,38.0,35.0,12.74,15.09,12.89,47.59359,-54.27349
2022-12-16 18:24:01+00:00,36.0,35.0,12.89,14.62,12.89,47.59359,-54.27349
2022-12-16 18:34:01+00:00,37.0,34.0,12.99,14.44,12.89,47.59359,-54.27349
2022-12-16 18:44:01+00:00,37.0,34.0,13.86,15.81,12.89,47.59359,-54.27349
2022-12-16 18:54:01+00:00,38.0,35.0,13.11,14.67,12.89,47.59359,-54.27349
2022-12-16 19:04:01+00:00,34.0,33.0,14.48,15.81,12.89,47.59359,-54.27349
2022-12-16 19:14:00+00:00,40.0,49.0,12.6,13.85,12.49,47.59359,-54.27349
2022-12-16 19:24:00+00:00,36.0,33.0,13.06,14.17,12.49,47.59359,-54.27349
2022-12-16 19:34:00+00:00,37.0,42.0,13.32,14.57,12.49,47.59359,-54.27349
2022-12-16 19:44:00+00:00,37.0,36.0,12.86,14.12,12.49,47.59359,-54.27349
2022-12-16 19:54:00+00:00,36.0,34.0,13.33,15.18,12.49,47.59359,-54.27349
2022-12-16 20:04:00+00:00,36.0,38.0,12.89,14.97,12.49,47.59359,-54.27349
2022-12-16 20:14:00+00:00,39.0,41.0,11.09,12.84,12.41,47.59359,-54.27349
2022-12-16 20:24:00+00:00,39.0,41.0,11.52,13.05,12.41,47.59359,-54.27349
2022-12-16 20:34:00+00:00,37.0,37.0,11.53,13.26,12.41,47.59359,-54.27349
2022-12-16 20:44:00+00:00,36.0,34.0,12.29,13.4,12.41,47.59359,-54.27349
2022-12-16 20:54:00+00:00,37.0,32.0,12.53,15.17,12.41,47.59359,-54.27349
2022-12-16 21:04:00+00:00,39.0,29.0,11.33,13.55,12.41,47.59359,-54.27349
2022-12-16 21:14:01+00:00,44.0,41.0,11.29,12.58,12.41,47.59359,-54.27349
2022-12-16 21:24:01+00:00,47.0,45.0,12.17,13.58,12.41,47.59359,-54.27349
2022-12-16 21:34:01+00:00,47.0,50.0,12.47,14.95,12.41,47.59359,-54.27349
2022-12-16 21:44:01+00:00,42.0,39.0,11.87,13.93,12.41,47.59359,-54.27349
2022-12-16 21:54:01+00:00,41.0,38.0,12.15,14.05,12.41,47.59359,-54.27349
2022-12-16 22:04:01+00:00,42.0,46.0,12.49,13.82,12.41,47.59359,-54.27349
2022-12-16 22:14:01+00:00,43.0,45.0,12.52,14.69,12.41,47.59359,-54.27349
2022-12-16 22:24:01+00:00,46.0,40.0,11.76,14.21,12.41,47.59359,-54.27349
2022-12-16 22:34:01+00:00,44.0,40.0,11.43,13.53,12.41,47.59359,-54.27349
2022-12-16 22:44:01+00:00,42.0,39.0,11.83,14.99,12.41,47.59359,-54.27349
2022-12-16 22:54:01+00:00,42.0,38.0,11.8,13.2,12.41,47.59359,-54.27349
2022-12-16 23:04:01+00:00,36.0,44.0,12.79,14.15,12.41,47.59359,-54.27349
2022-12-16 23:14:00+00:00,43.0,44.0,11.67,14.18,12.41,47.59359,-54.27349
2022-12-16 23:24:00+00:00,45.0,44.0,12.16,13.81,12.41,47.59359,-54.27349
2022-12-16 23:34:00+00:00,41.0,39.0,12.94,14.69,12.41,47.59359,-54.27349
2022-12-16 23:44:00+00:00,40.0,36.0,13.1,15.02,12.41,47.59359,-54.27349
2022-12-16 23:54:00+00:00,44.0,48.0,11.77,13.98,12.41,47.59359,-54.27349
